User: anonymous   Login
Location: Unspecified
(0.0000°N, 0.0000°E)
Time: 12:31:23
(UTC+02:00)
Language:

Iridium 4 Rocket - Orbit

View from above orbital plane
View from above orbital plane
View from above satellite
View from above satellite

Ground track
Ground track

The orbit data is extracted from the following two-line orbital elements,

1 24797U 97020F   15116.07891801  .00000834  00000-0  17329-3 0  9995
2 24797 086.8920 280.0365 0228122 048.1040 078.3250 14.43590337944957
Epoch (UTC): 26 April 2015 01:53:38
Eccentricity: 0.0228122
inclination: 86.8920°
perigee height: 584 km
apogee height: 909 km
right ascension of ascending node: 280.0365°
argument of perigee: 48.1040°
revolutions per day: 14.43590337
mean anomaly at epoch: 78.3250°
orbit number at epoch: 94495

The dashed part of the orbit path shows where the satellite is in the earth's shadow,  

DLR